Regional Weather Roundup
Issued by NWS Kansas City/Pleasant Hill, MO

Home | Current Version | Previous Version | Graphics & Text | Print | Product List | Glossary Off
Versions: 1 2 3 4 5 6 7 8 9 10 11 12 13 14 15 16 17 18 19 20 21 22 23 24 25 26 27

000
ASUS43 KEAX 280210
RWREAX

WEATHER ROUNDUP FOR EASTERN KANSAS AND NORTHWEST MISSOURI
NATIONAL WEATHER SERVICE KANSAS CITY/PLEASANT HILL MO
900 PM CDT WED APR 27 2016

KSZ040-057-103>105-MOZ028-029-037-043-280300-
...KANSAS CITY METROPOLITAN AREA...

CITY           SKY/WX    TMP DP  RH WIND       PRES   REMARKS
K.C. INTL      PTCLDY    54  44  69 W9        29.66R
K.C. DOWNTOWN  CLEAR     59  45  59 W9        29.66R
LEES SUMMIT    CLEAR     58  47  66 W6        29.67R
OLATHE - IXD   CLEAR     57  47  69 W8        29.68R
OLATHE - OJC   PTCLDY    57  46  66 W7        29.67R
LAWRENCE       CLEAR     55  47  74 W7        29.67R

$$

MOZ001>008-011>017-020>025-030>033-038>040-044>046-053-054-280300-
...NORTHERN AND CENTRAL MISSOURI...

CITY           SKY/WX    TMP DP  RH WIND       PRES   REMARKS
ST. JOSEPH     MOCLDY    53  45  74 W8        29.65R
MOSBY          CLEAR     55  46  71 CALM      29.67R
WARRENSBURG    PTCLDY    59  48  67 SW7       29.68R
WHITEMAN AFB   PTCLDY    60  52  73 NW8       29.67R
CLINTON        CLEAR     61  50  67 W9        29.69R
SEDALIA        PTCLDY    64  51  62 W10       29.68R
WARSAW         NOT AVBL
CHILLICOTHE      N/A     56  32  40 W5        29.67R
KIRKSVILLE     CLOUDY    55  52  89 W8        29.64R

$$

MOZ041-047>049-056>058-063>065-088>090-097-280300-
...EASTERN AND SOUTHERN MISSOURI...

CITY           SKY/WX    TMP DP  RH WIND       PRES   REMARKS
ST. LOUIS INTL PTCLDY    72  62  71 SE7       29.62R
SPIRIT OF STL  CLOUDY    68  63  84 CALM      29.61R
COLUMBIA       PTCLDY    68  51  54 NW18G24   29.65R
JEFFERSON CITY CLEAR     70  50  49 W7        29.63R
ROLLA          CLEAR     61  55  81 SW6       29.64R
OSAGE BEACH    CLEAR     70  46  43 W8        29.66R
SPRINGFIELD    CLEAR     66  49  54 W8        29.69R
BRANSON        CLEAR     66  50  55 CALM      29.70R
JOPLIN         CLEAR     62  49  62 W10       29.72R
WEST PLAINS    MOCLDY    63  57  81 MISG      29.68R

$$

IAZ060-094-KSZ022-034>040-054-083-096-NEZ052-066-093-280300-
...KANSAS...SOUTHEAST NEBRASKA AND IOWA...

CITY           SKY/WX    TMP DP  RH WIND       PRES   REMARKS
TOPEKA         PTCLDY    56  45  66 W8        29.67R
MANHATTAN      MOCLDY    53  39  59 W7G18     29.69R
EMPORIA        CLEAR     56  45  66 W9        29.70R
CHANUTE        CLEAR     56  48  74 SW7       29.70R
WICHITA        PTCLDY    56  44  64 NW7       29.74R
OMAHA          LGT RAIN  51  46  83 S9        29.54R
LINCOLN        CLOUDY    46  43  89 S8        29.55R
FALLS CITY     CLOUDY    49  40  71 SW15G25   29.62R
LAMONI         CLOUDY    52  46  80 W18G28    29.63R
DES MOINES     CLOUDY    51  48  89 E8        29.62R

$$





USA.gov is the U.S. government's official web portal to all federal, state and local government web resources and services.